[[{"header":{"parameterUnit":"m.s-1","parameterCategory":2,"la1":30.2992,"la2":30.254,"lo1":-89.0895,"lo2":-89.0443,"dy":0.0025,"dx":0.0025,"nx":19,"ny":19,"refTime":"2026-05-21T03:00:00:Z","depth":"0","parameterNumber":2,"parameterNumberName":"U-component_of_CURRENTS"},"data":[0,0,0,-0.1017,-0.1017,-0.1015,-0.1015,-0.0968,-0.0967,0,0,0,0,0,0,0,0,0,0,0,-0.1012,-0.1012,-0.1017,-0.1017,-0.1015,-0.1015,-0.0968,-0.0967,0,0,0,0,0,0,0,0,0,0,0,-0.1012,-0.1012,-0.1012,-0.1017,-0.1015,-0.1015,-0.0968,-0.098,0,0,0,0,0,0,0,0,0,0,-0.0987,-0.0988,-0.1012,-0.1012,-0.1017,-0.1015,-0.1015,-0.0981,-0.0979,-0.0957,0,-0.0956,0,-0.0964,-0.0964,-0.0963,0,0,0,-0.1013,-0.0989,-0.0992,-0.1012,-0.1017,-0.1015,-0.1015,-0.098,-0.0978,-0.0955,-0.0956,-0.0954,-0.0963,-0.0963,-0.0963,-0.0906,-0.0906,0,0,-0.1013,-0.1007,-0.0994,-0.0991,-0.1014,-0.1015,-0.1015,-0.0979,-0.0973,-0.0955,-0.0953,-0.0962,-0.0963,-0.0962,-0.0906,-0.0906,0,0,0,-0.1016,-0.1007,-0.1011,-0.0992,-0.0997,-0.1015,-0.1015,-0.0974,-0.0977,-0.0953,-0.0962,-0.0963,-0.0962,-0.0906,-0.0906,-0.0943,0,0,0,-0.1016,-0.1009,-0.1011,-0.1007,-0.0998,-0.0992,-0.1011,-0.0979,-0.0976,-0.0962,-0.0963,-0.0961,-0.0906,-0.0906,-0.0943,-0.0938,0,0,0,-0.1012,-0.1009,-0.1009,-0.1007,-0.1009,-0.0993,-0.0993,-0.0979,-0.0981,-0.0963,-0.0961,-0.0907,-0.0906,-0.0942,-0.0937,-0.0765,0,0,0,-0.1006,-0.1007,-0.1008,-0.1015,-0.1009,-0.1016,-0.0994,-0.0991,-0.0979,-0.0962,-0.0906,-0.0906,-0.0942,-0.0937,-0.0767,-0.0354,-0.0308,0,0,-0.1007,-0.1007,-0.1014,-0.1016,-0.1032,-0.1016,-0.1011,-0.0985,-0.0961,-0.0915,-0.0914,-0.0943,-0.0937,-0.0765,-0.0327,-0.0281,0,0,0,-0.1015,-0.1017,-0.1023,-0.1032,-0.1037,-0.1028,-0.1005,-0.0985,-0.0952,-0.0952,-0.0923,-0.0917,-0.0806,-0.0563,-0.0527,-0.042,-0.0904,-0.0904,-0.0904,-0.0993,-0.1013,-0.1028,-0.1044,-0.1042,-0.103,-0.1015,-0.0977,-0.0957,-0.0943,-0.0934,-0.0812,-0.0557,-0.0524,-0.0424,-0.0928,-0.0928,-0.0928,-0.0929,-0.1,-0.1004,-0.103,-0.1055,-0.1053,-0.1047,-0.1007,-0.0993,-0.0891,-0.0936,-0.0825,-0.06,-0.0486,-0.0392,-0.0931,-0.093,-0.093,-0.093,-0.093,-0.0981,-0.0983,-0.1019,-0.1033,-0.103,-0.1019,-0.0856,-0.0899,-0.0888,-0.084,-0.0415,-0.0409,-0.0324,-0.0721,-0.072,-0.0719,-0.0718,-0.0718,-0.0717,-0.0935,-0.097,-0.0918,-0.098,-0.0899,-0.0819,-0.0732,-0.0579,-0.0389,-0.0377,-0.0371,-0.0232,-0.0745,-0.0751,-0.0706,-0.0708,-0.0709,-0.0711,-0.0711,-0.0855,-0.0856,-0.0742,-0.066,-0.0485,-0.0301,-0.0239,0.0121,0.0239,0.0405,0.0345,-0.0077,0.0015,-0.0009,0.0007,0.0245,0.0245,0.0245,0.0245,-0.0728,-0.0762,-0.0463,-0.0239,-0.0024,0.0016,0.0487,0.0681,0.0827,0.0902,0.0785,0.0791,0.0747,0.0875,0.0831,0.086,0.1309,0.131,0.1311,-0.0589,-0.0516,-0.0233,-0.0071,0.0205,0.0389,0.0697,0.0923,0.1231,0.1341,0.0843,0.0799,0.0772,0.0696,0.0861,0.0791,0.0824,0,0]},{"header":{"parameterUnit":"m.s-1","parameterCategory":2,"la1":30.2992,"la2":30.254,"lo1":-89.0895,"lo2":-89.0443,"dy":0.0025,"dx":0.0025,"nx":19,"ny":19,"refTime":"2026-05-21T03:00:00:Z","depth":"0","parameterNumber":3,"parameterNumberName":"V-component_of_CURRENTS"},"data":[0,0,0,-0.0234,-0.0233,-0.0195,-0.0195,-0.0122,-0.0122,0,0,0,0,0,0,0,0,0,0,0,-0.0247,-0.0247,-0.0234,-0.0233,-0.0195,-0.0195,-0.0122,-0.0122,0,0,0,0,0,0,0,0,0,0,0,-0.0248,-0.0247,-0.0247,-0.0233,-0.0195,-0.0195,-0.0123,-0.0156,0,0,0,0,0,0,0,0,0,0,-0.0195,-0.0217,-0.0247,-0.0247,-0.0233,-0.0195,-0.0195,-0.0158,-0.0154,-0.0134,0,-0.0133,0,-0.0127,-0.0117,-0.0117,0,0,0,-0.0227,-0.022,-0.0207,-0.0247,-0.0233,-0.0196,-0.0211,-0.0155,-0.0151,-0.0129,-0.0132,-0.013,-0.0126,-0.0116,-0.0116,-0.0085,-0.0085,0,0,-0.0229,-0.0241,-0.0211,-0.0205,-0.0228,-0.0212,-0.021,-0.0153,-0.0152,-0.0132,-0.0128,-0.0125,-0.0116,-0.0115,-0.0085,-0.0085,0,0,0,-0.0239,-0.0242,-0.0231,-0.0208,-0.0204,-0.0211,-0.0208,-0.0154,-0.015,-0.0127,-0.0124,-0.0115,-0.0115,-0.0084,-0.0085,-0.0171,0,0,0,-0.024,-0.0248,-0.0232,-0.0238,-0.0205,-0.0183,-0.0211,-0.0154,-0.0147,-0.0124,-0.0115,-0.0114,-0.0084,-0.0084,-0.0168,-0.0086,0,0,0,-0.0248,-0.0249,-0.0246,-0.0239,-0.0225,-0.0184,-0.0176,-0.0152,-0.0145,-0.0116,-0.0114,-0.0084,-0.0084,-0.0166,-0.0085,0.0176,0,0,0,-0.0259,-0.0274,-0.0246,-0.0262,-0.0226,-0.022,-0.0176,-0.016,-0.0139,-0.0115,-0.0084,-0.0085,-0.0165,-0.0085,0.0172,0.0458,0.05,0,0,-0.0288,-0.0278,-0.0288,-0.0263,-0.0288,-0.0225,-0.024,-0.0188,-0.0139,-0.0099,-0.0098,-0.0169,-0.0085,0.0175,0.0429,0.0473,0,0,0,-0.0304,-0.0321,-0.0319,-0.0328,-0.0302,-0.0275,-0.024,-0.0214,-0.018,-0.0129,-0.0154,-0.0095,0.0072,0.0233,0.0267,0.0271,-0.0087,-0.0087,-0.0087,-0.0366,-0.0365,-0.039,-0.0388,-0.0368,-0.0319,-0.0279,-0.0231,-0.0222,-0.022,-0.0162,-0.0005,0.0153,0.0185,0.0177,-0.0218,-0.0218,-0.0218,-0.0219,-0.0441,-0.044,-0.0442,-0.0464,-0.0418,-0.04,-0.0307,-0.0285,-0.0127,-0.0213,-0.0047,0.0137,0.0219,0.0197,-0.0224,-0.0223,-0.0222,-0.0222,-0.0222,-0.05,-0.0479,-0.0516,-0.0474,-0.0413,-0.0335,-0.0069,-0.0065,-0.0085,-0.0003,0.0399,0.0404,0.0408,0.0144,0.0145,0.0147,0.0148,0.0149,0.015,-0.049,-0.0521,-0.0421,-0.0399,-0.026,-0.0048,0.0165,0.0347,0.0519,0.0461,0.0465,0.0481,0.0113,0.0125,0.0172,0.0168,0.0165,0.0163,0.0161,-0.0371,-0.0374,-0.0211,-0.0076,0.0231,0.0524,0.0683,0.1064,0.1212,0.1335,0.1021,0.0756,0.0894,0.0868,0.0902,0.115,0.115,0.115,0.1151,-0.019,-0.0221,0.0104,0.0385,0.0686,0.0848,0.1328,0.156,0.1608,0.1559,0.1417,0.1271,0.1231,0.1376,0.1339,0.1377,0.174,0.174,0.174,0.008,0.01,0.041,0.0556,0.0898,0.1173,0.1518,0.1745,0.1803,0.1747,0.1363,0.1339,0.1086,0.1024,0.1207,0.1155,0.1202,0,0]}],[{"header":{"parameterUnit":"m.s-1","parameterCategory":2,"la1":30.2992,"la2":30.254,"lo1":-89.0895,"lo2":-89.0443,"dy":0.0025,"dx":0.0025,"nx":19,"ny":19,"refTime":"2026-05-21T03:00:00:Z","depth":"2","parameterNumber":2,"parameterNumberName":"U-component_of_CURRENTS"},"data":[0,0,0,-0.0959,-0.0959,-0.0963,-0.0963,-0.092,-0.092,0,0,0,0,0,0,0,0,0,0,0,-0.0953,-0.0953,-0.0959,-0.0959,-0.0963,-0.0963,-0.092,-0.092,0,0,0,0,0,0,0,0,0,0,0,-0.0953,-0.0953,-0.0953,-0.0959,-0.0963,-0.0963,-0.092,-0.0929,0,0,0,0,0,0,0,0,0,0,-0.0931,-0.0932,-0.0953,-0.0953,-0.0959,-0.0963,-0.0963,-0.0929,-0.0928,-0.0906,0,-0.0907,0,-0.0915,-0.0916,-0.0916,0,0,0,-0.0956,-0.0933,-0.0936,-0.0953,-0.0959,-0.0963,-0.096,-0.0929,-0.0927,-0.0904,-0.0906,-0.0905,-0.0914,-0.0916,-0.0916,-0.0865,-0.0865,0,0,-0.0955,-0.095,-0.0938,-0.0936,-0.0959,-0.096,-0.096,-0.0928,-0.0923,-0.0906,-0.0905,-0.0913,-0.0915,-0.0915,-0.0865,-0.0865,0,0,0,-0.0957,-0.095,-0.0955,-0.0937,-0.0943,-0.096,-0.0961,-0.0925,-0.0927,-0.0904,-0.0913,-0.0915,-0.0915,-0.0866,-0.0865,-0.0911,0,0,0,-0.0957,-0.0951,-0.0954,-0.0951,-0.0944,-0.094,-0.0958,-0.0929,-0.0926,-0.0913,-0.0915,-0.0914,-0.0866,-0.0865,-0.091,-0.092,0,0,0,-0.0953,-0.0951,-0.0952,-0.0951,-0.0955,-0.0941,-0.0942,-0.0929,-0.0931,-0.0916,-0.0914,-0.0866,-0.0866,-0.091,-0.0919,-0.0832,0,0,0,-0.0947,-0.095,-0.0951,-0.096,-0.0955,-0.0964,-0.0942,-0.0943,-0.0933,-0.0915,-0.0866,-0.0865,-0.0909,-0.0918,-0.0833,-0.076,-0.075,0,0,-0.095,-0.095,-0.0957,-0.0959,-0.098,-0.0963,-0.0967,-0.0944,-0.0916,-0.0872,-0.0872,-0.0911,-0.0918,-0.0832,-0.0739,-0.073,0,0,0,-0.0958,-0.0963,-0.0968,-0.0981,-0.0986,-0.0989,-0.0966,-0.0946,-0.0916,-0.0909,-0.089,-0.0893,-0.0837,-0.0794,-0.0787,-0.0864,-0.0864,-0.0864,-0.0864,-0.0945,-0.0965,-0.0986,-0.1006,-0.1008,-0.1,-0.099,-0.0954,-0.0927,-0.0916,-0.0916,-0.0864,-0.0822,-0.0814,-0.0904,-0.0905,-0.0905,-0.0905,-0.0905,-0.0966,-0.0972,-0.1008,-0.1037,-0.1041,-0.104,-0.1005,-0.0987,-0.0918,-0.0927,-0.087,-0.0829,-0.0809,-0.0908,-0.0907,-0.0907,-0.0907,-0.0906,-0.0906,-0.096,-0.096,-0.1004,-0.1033,-0.105,-0.1043,-0.0971,-0.0969,-0.094,-0.0917,-0.0779,-0.0777,-0.086,-0.0854,-0.0854,-0.0853,-0.0853,-0.0853,-0.0853,-0.0914,-0.0958,-0.0946,-0.1003,-0.099,-0.0973,-0.0926,-0.0853,-0.0791,-0.0798,-0.0796,-0.0844,-0.0846,-0.0854,-0.0848,-0.0849,-0.0849,-0.085,-0.085,-0.0833,-0.0848,-0.0832,-0.0822,-0.0831,-0.083,-0.0799,-0.0709,-0.0611,-0.0579,-0.0701,-0.0706,-0.0662,-0.0667,-0.0668,-0.0614,-0.0614,-0.0614,-0.0614,-0.0726,-0.0754,-0.0689,-0.0678,-0.069,-0.075,-0.0638,-0.0552,-0.0542,-0.0554,-0.0557,-0.059,-0.06,-0.0554,-0.0562,-0.0562,-0.048,-0.048,-0.048,-0.0609,-0.0624,-0.0553,-0.0623,-0.0661,-0.0698,-0.064,-0.0422,-0.034,-0.048,-0.0584,-0.0595,-0.0654,-0.0665,-0.0603,-0.0613,-0.0615,0,0]},{"header":{"parameterUnit":"m.s-1","parameterCategory":2,"la1":30.2992,"la2":30.254,"lo1":-89.0895,"lo2":-89.0443,"dy":0.0025,"dx":0.0025,"nx":19,"ny":19,"refTime":"2026-05-21T03:00:00:Z","depth":"2","parameterNumber":3,"parameterNumberName":"V-component_of_CURRENTS"},"data":[0,0,0,-0.0311,-0.0311,-0.0273,-0.0273,-0.0208,-0.0208,0,0,0,0,0,0,0,0,0,0,0,-0.0325,-0.0325,-0.0311,-0.031,-0.0273,-0.0273,-0.0209,-0.0208,0,0,0,0,0,0,0,0,0,0,0,-0.0325,-0.0325,-0.0325,-0.031,-0.0273,-0.0273,-0.0209,-0.024,0,0,0,0,0,0,0,0,0,0,-0.0278,-0.0299,-0.0325,-0.0325,-0.031,-0.0273,-0.0273,-0.0241,-0.0238,-0.0223,0,-0.0221,0,-0.0214,-0.0204,-0.0204,0,0,0,-0.0305,-0.0302,-0.0288,-0.0325,-0.031,-0.0273,-0.0288,-0.024,-0.0235,-0.0218,-0.022,-0.0217,-0.0213,-0.0203,-0.0203,-0.0158,-0.0158,0,0,-0.0307,-0.0319,-0.0291,-0.0286,-0.0305,-0.029,-0.0287,-0.0237,-0.0236,-0.022,-0.0216,-0.0212,-0.0203,-0.0202,-0.0158,-0.0158,0,0,0,-0.0317,-0.0321,-0.0308,-0.0289,-0.0284,-0.0289,-0.0286,-0.0239,-0.0234,-0.0215,-0.0211,-0.0203,-0.0202,-0.0158,-0.0158,-0.0238,0,0,0,-0.0318,-0.0326,-0.031,-0.0316,-0.0285,-0.0264,-0.0289,-0.0237,-0.0232,-0.0212,-0.0203,-0.0201,-0.0158,-0.0158,-0.0236,-0.0215,0,0,0,-0.0326,-0.0327,-0.0324,-0.0317,-0.0303,-0.0265,-0.0257,-0.0236,-0.0229,-0.0203,-0.0201,-0.0158,-0.0158,-0.0234,-0.0213,-0.0107,0,0,0,-0.0338,-0.0345,-0.0324,-0.0331,-0.0303,-0.0289,-0.0257,-0.0241,-0.0222,-0.0202,-0.0158,-0.0158,-0.0233,-0.0212,-0.0107,-0.019,-0.0192,0,0,-0.0356,-0.0348,-0.0352,-0.0332,-0.0343,-0.0293,-0.0297,-0.0259,-0.0214,-0.0172,-0.0171,-0.0236,-0.0213,-0.0107,-0.0186,-0.0189,0,0,0,-0.0364,-0.0374,-0.0369,-0.0372,-0.0347,-0.0334,-0.0296,-0.027,-0.0238,-0.0203,-0.0212,-0.0193,-0.0124,-0.0176,-0.0178,-0.0157,-0.0157,-0.0157,-0.0157,-0.0411,-0.0406,-0.0432,-0.0426,-0.0407,-0.0363,-0.0337,-0.0292,-0.0266,-0.026,-0.0244,-0.0192,-0.0254,-0.0255,-0.0254,-0.0255,-0.0255,-0.0255,-0.0255,-0.0486,-0.0506,-0.0498,-0.0524,-0.0489,-0.0474,-0.0387,-0.0358,-0.0263,-0.0281,-0.0211,-0.0241,-0.0262,-0.0261,-0.026,-0.0259,-0.0259,-0.0258,-0.0258,-0.0548,-0.0552,-0.0583,-0.0601,-0.0585,-0.0518,-0.0448,-0.0362,-0.0285,-0.0247,-0.0194,-0.0194,-0.018,-0.0185,-0.0185,-0.0184,-0.0184,-0.0183,-0.0183,-0.059,-0.0618,-0.0661,-0.065,-0.0657,-0.0588,-0.0446,-0.0376,-0.0258,-0.0224,-0.0224,-0.0164,-0.0166,-0.017,-0.0175,-0.0176,-0.0177,-0.0178,-0.0179,-0.0668,-0.0658,-0.0706,-0.0736,-0.0751,-0.0697,-0.056,-0.0404,-0.027,-0.0226,-0.0188,-0.0191,-0.0134,-0.0135,-0.0135,-0.0129,-0.0129,-0.0129,-0.0129,-0.0716,-0.0707,-0.0794,-0.0856,-0.0876,-0.0781,-0.0672,-0.0482,-0.0299,-0.0211,-0.0207,-0.0309,-0.031,-0.0266,-0.0263,-0.0267,-0.0294,-0.0294,-0.0294,-0.0799,-0.0773,-0.0866,-0.0904,-0.097,-0.0878,-0.0729,-0.0457,-0.0255,-0.0297,-0.0196,-0.0148,-0.0294,-0.0296,-0.0225,-0.0222,-0.0226,0,0]}],[{"header":{"parameterUnit":"m.s-1","parameterCategory":2,"la1":30.2992,"la2":30.254,"lo1":-89.0895,"lo2":-89.0443,"dy":0.0025,"dx":0.0025,"nx":19,"ny":19,"refTime":"2026-05-21T03:00:00:Z","depth":"4","parameterNumber":2,"parameterNumberName":"U-component_of_CURRENTS"},"data":[0,0,0,-0.0803,-0.0804,-0.0849,-0.085,-0.083,-0.083,0,0,0,0,0,0,0,0,0,0,0,-0.0787,-0.0788,-0.0803,-0.0804,-0.0849,-0.085,-0.083,-0.083,0,0,0,0,0,0,0,0,0,0,0,-0.0787,-0.0787,-0.0788,-0.0804,-0.0849,-0.085,-0.083,-0.0814,0,0,0,0,0,0,0,0,0,0,-0.078,-0.078,-0.0787,-0.0788,-0.0804,-0.0849,-0.085,-0.0814,-0.0815,-0.0788,0,-0.0801,0,-0.0814,-0.0827,-0.0827,0,0,0,-0.0801,-0.0779,-0.079,-0.0788,-0.0805,-0.0849,-0.0828,-0.0816,-0.0816,-0.0789,-0.0801,-0.0801,-0.0814,-0.0827,-0.0826,-0.0768,-0.0768,0,0,-0.0798,-0.0794,-0.0789,-0.0791,-0.0822,-0.0827,-0.0829,-0.0817,-0.0819,-0.0801,-0.0801,-0.0814,-0.0826,-0.0826,-0.0768,-0.0768,0,0,0,-0.0793,-0.0792,-0.0805,-0.0791,-0.0805,-0.0828,-0.0831,-0.082,-0.0824,-0.0801,-0.0814,-0.0826,-0.0826,-0.0769,-0.0768,-0.0786,0,0,0,-0.0791,-0.0789,-0.0803,-0.0801,-0.0806,-0.0824,-0.0834,-0.0825,-0.0824,-0.0814,-0.0826,-0.0825,-0.0769,-0.0768,-0.0786,-0.08,0,0,0,-0.0784,-0.0788,-0.0796,-0.0801,-0.0822,-0.0825,-0.0829,-0.0826,-0.0831,-0.0827,-0.0825,-0.0769,-0.0769,-0.0786,-0.08,-0.08,0,0,0,-0.0775,-0.0785,-0.0796,-0.081,-0.0821,-0.0833,-0.083,-0.0841,-0.0839,-0.0826,-0.0769,-0.0768,-0.0786,-0.08,-0.08,-0.0699,0,0,0,-0.0779,-0.0786,-0.0793,-0.0804,-0.0816,-0.0826,-0.0825,-0.0827,-0.0813,-0.0768,-0.0767,-0.0786,-0.08,-0.08,-0.0653,0,0,0,0,-0.0789,-0.0794,-0.08,-0.0813,-0.0822,-0.083,-0.0827,-0.0817,-0.0795,-0.0809,-0.0765,-0.0773,-0.0773,-0.0712,-0.0764,-0.0765,-0.0765,-0.0765,-0.0765,-0.0777,-0.0788,-0.0799,-0.0811,-0.0821,-0.0825,-0.0823,-0.0802,-0.0785,-0.0774,-0.0772,-0.0763,-0.0696,-0.0749,-0.0749,-0.075,-0.075,-0.075,-0.075,-0.0769,-0.0769,-0.0797,-0.0808,-0.082,-0.0816,-0.081,-0.0802,-0.0772,-0.0762,-0.076,-0.0715,-0.0751,-0.0751,-0.075,-0.075,-0.075,-0.075,-0.075,-0.074,-0.0744,-0.0761,-0.0781,-0.08,-0.0811,-0.0802,-0.0808,-0.0789,-0.0789,-0.0713,-0.0771,-0.0788,-0.0785,-0.0785,-0.0785,-0.0785,-0.0785,-0.0785,-0.0695,-0.0717,-0.0699,-0.0748,-0.0747,-0.077,-0.0796,-0.0781,-0.0792,-0.072,-0.0793,-0.0774,-0.0773,-0.0789,-0.0786,-0.0786,-0.0786,-0.0786,-0.0785,-0.0616,-0.0635,-0.0621,-0.0615,-0.0636,-0.0668,-0.0723,-0.0712,-0.069,-0.0658,-0.0676,-0.0681,-0.0667,-0.0669,-0.068,-0.0645,-0.0644,-0.0643,0,-0.0539,-0.0559,-0.0523,-0.0509,-0.0509,-0.0594,-0.0545,-0.0575,-0.06,-0.0574,-0.0687,-0.0709,-0.0711,-0.0697,-0.0696,-0.0709,0,0,0,-0.0443,-0.0479,-0.0425,-0.0465,-0.0454,-0.0486,-0.0538,-0.0514,-0.0598,-0.0568,-0.061,-0.0619,-0.0728,-0.0788,-0.0779,-0.0778,-0.0802,0,0]},{"header":{"parameterUnit":"m.s-1","parameterCategory":2,"la1":30.2992,"la2":30.254,"lo1":-89.0895,"lo2":-89.0443,"dy":0.0025,"dx":0.0025,"nx":19,"ny":19,"refTime":"2026-05-21T03:00:00:Z","depth":"4","parameterNumber":3,"parameterNumberName":"V-component_of_CURRENTS"},"data":[0,0,0,-0.0233,-0.0233,-0.0213,-0.0213,-0.0156,-0.0155,0,0,0,0,0,0,0,0,0,0,0,-0.0242,-0.0242,-0.0234,-0.0233,-0.0213,-0.0213,-0.0156,-0.0155,0,0,0,0,0,0,0,0,0,0,0,-0.0242,-0.0242,-0.0242,-0.0233,-0.0213,-0.0213,-0.0156,-0.0178,0,0,0,0,0,0,0,0,0,0,-0.0201,-0.022,-0.0242,-0.0242,-0.0233,-0.0213,-0.0212,-0.0179,-0.0177,-0.0158,0,-0.0161,0,-0.0157,-0.0151,-0.0151,0,0,0,-0.0228,-0.0223,-0.0213,-0.0242,-0.0233,-0.0213,-0.022,-0.0178,-0.0175,-0.0155,-0.016,-0.0158,-0.0157,-0.0151,-0.0151,-0.0036,-0.0035,0,0,-0.0229,-0.024,-0.0215,-0.0211,-0.0234,-0.0221,-0.022,-0.0176,-0.0178,-0.016,-0.0157,-0.0156,-0.0151,-0.015,-0.0037,-0.0036,0,0,0,-0.0236,-0.0241,-0.0232,-0.0213,-0.0213,-0.0221,-0.0219,-0.018,-0.0176,-0.0156,-0.0155,-0.015,-0.015,-0.0038,-0.0037,0.0007,0,0,0,-0.0236,-0.0245,-0.0233,-0.0239,-0.0214,-0.0201,-0.0224,-0.0179,-0.0174,-0.0155,-0.015,-0.0149,-0.0039,-0.0037,0.0004,-0.0049,0,0,0,-0.0242,-0.0245,-0.0244,-0.024,-0.0233,-0.0202,-0.0196,-0.0178,-0.0173,-0.0151,-0.0149,-0.0039,-0.0038,0.0001,-0.0051,-0.014,0,0,0,-0.0251,-0.0253,-0.0245,-0.0242,-0.0233,-0.0195,-0.0196,-0.0179,-0.0162,-0.015,-0.0039,-0.0037,0.0,-0.0053,-0.014,-0.0188,0,0,0,-0.0256,-0.0254,-0.025,-0.0242,-0.02,-0.0197,-0.0125,-0.0115,-0.012,-0.0052,-0.005,0.0005,-0.0051,-0.014,-0.0072,0,0,0,0,-0.0253,-0.0242,-0.0232,-0.0206,-0.018,-0.0128,-0.0095,-0.0068,-0.0016,-0.0101,0.0032,-0.0006,-0.0064,-0.0086,-0.0027,-0.0028,-0.0028,-0.0028,-0.0028,-0.0258,-0.0231,-0.0209,-0.016,-0.0131,-0.0064,-0.0024,0.0027,0.0036,0.0074,0.0053,0.004,0.0029,0.0118,0.0118,0.0118,0.0118,0.0119,0.0119,-0.0242,-0.0243,-0.0185,-0.0162,-0.0099,-0.0045,0.0054,0.008,0.0106,0.0135,0.0078,-0.0005,0.0124,0.0123,0.0122,0.0121,0.0121,0.0121,0.012,-0.0241,-0.0252,-0.0222,-0.0213,-0.0176,-0.0107,-0.0124,-0.0038,0.0067,0.0062,-0.0058,0.0015,-0.0024,0.0001,-0.0,-0.0001,-0.0001,-0.0001,-0.0002,-0.0301,-0.0267,-0.0321,-0.0315,-0.034,-0.0359,-0.0294,-0.0279,-0.0177,-0.0078,0.0006,-0.0003,0.0001,-0.0034,-0.001,-0.0009,-0.0008,-0.0007,-0.0006,-0.0396,-0.0418,-0.047,-0.0515,-0.0562,-0.0564,-0.0542,-0.0455,-0.0454,-0.039,-0.0155,-0.0145,-0.0206,-0.0199,-0.0243,-0.0282,-0.0282,-0.0283,0,-0.0524,-0.0522,-0.0597,-0.0644,-0.0687,-0.0649,-0.0634,-0.0594,-0.0439,-0.0368,-0.044,-0.0174,-0.0164,-0.0234,-0.0229,-0.0281,0,0,0,-0.0666,-0.0635,-0.0696,-0.0669,-0.0688,-0.0613,-0.0603,-0.0556,-0.0435,-0.048,-0.03,-0.0296,-0.0274,-0.0036,-0.0111,-0.0106,-0.0168,0,0]}]]